,5���@���q�F����,5���@���q�F����,5���@���q�F�����x,5���@�g�p�ϔR���v�[�����x,6���@���q�F����,6���@���q�F���ʃI�[�v���x�b�Z��,6���@���q�F���ʒ�~��,6���@���q�F�����x,6���@�g�p�ϔR���v�[�����x,"���l"
�P��,MPa g,mm,��,��,MPa g,m,mm,��,��,""
�ŐV�����̌v��̏��,,,,,,,,,,""
2014/1/1 1:00,0.007 ,2283 ,32.6 ,14.7 ,,,,,15.5 ,""
2014/1/1 2:00,0.007 ,2283 ,32.7 ,14.8 ,,,,,15.4 ,""
2014/1/1 3:00,0.007 ,2283 ,32.6 ,14.7 ,,,,,15.4 ,""
2014/1/1 4:00,0.007 ,2283 ,32.6 ,14.7 ,,,,,15.4 ,""
2014/1/1 5:00,0.007 ,2283 ,32.7 ,14.7 ,,,,,15.4 ,""
2014/1/1 6:00,0.007 ,2283 ,32.7 ,14.7 ,,,,,15.4 ,""
2014/1/1 7:00,0.007 ,2283 ,32.6 ,14.7 ,,,,,15.4 ,""
2014/1/1 8:00,0.007 ,2283 ,32.6 ,14.8 ,,,,,15.4 ,""
2014/1/1 9:00,0.007 ,2283 ,32.6 ,14.7 ,,,,,15.4 ,""
2014/1/1 10:00,0.007 ,2283 ,32.6 ,14.7 ,,,,,15.4 ,""
2014/1/1 11:00,0.007 ,2283 ,32.6 ,14.7 ,,,,,15.5 ,""
2014/1/1 12:00,0.007 ,2283 ,32.6 ,14.7 ,,,,,15.4 ,""
2014/1/1 13:00,0.007 ,2283 ,32.6 ,14.7 ,,,,,15.4 ,""
2014/1/1 14:00,0.007 ,2284 ,32.6 ,14.7 ,,,,,15.4 ,""
2014/1/1 15:00,0.007 ,2283 ,32.6 ,14.7 ,,,,,15.4 ,""
2014/1/1 16:00,0.007 ,2283 ,32.6 ,14.7 ,,,,,15.4 ,""
2014/1/1 17:00,0.007 ,2283 ,32.6 ,14.7 ,,,,,15.4 ,""
2014/1/1 18:00,0.007 ,2283 ,32.6 ,14.7 ,,,,,15.4 ,""
2014/1/1 19:00,0.007 ,2283 ,32.6 ,14.7 ,,,,,15.4 ,""
2014/1/1 20:00,0.007 ,2283 ,32.6 ,14.7 ,,,,,15.4 ,""
2014/1/1 21:00,0.007 ,2283 ,32.6 ,14.8 ,,,,,15.5 ,""
2014/1/1 22:00,0.007 ,2283 ,32.6 ,14.7 ,,,,,15.5 ,""
2014/1/1 23:00,0.007 ,2283 ,32.6 ,14.8 ,,,,,15.5 ,""
2014/1/2 0:00,0.007 ,2283 ,32.6 ,14.7 ,,,,,15.5 ,""
2014/1/2 1:00,0.007 ,2283 ,32.6 ,14.7 ,,,,,15.5 ,""
2014/1/2 2:00,0.007 ,2283 ,32.6 ,14.7 ,,,,,15.5 ,""
2014/1/2 3:00,0.007 ,2283 ,32.6 ,14.7 ,,,,,15.5 ,""
2014/1/2 4:00,0.007 ,2282 ,32.6 ,14.7 ,,,,,15.5 ,""
2014/1/2 5:00,0.007 ,2282 ,32.6 ,14.7 ,,,,,15.5 ,""
2014/1/2 6:00,0.007 ,2282 ,32.6 ,14.8 ,,,,,15.5 ,""
2014/1/2 7:00,0.007 ,2282 ,32.6 ,14.7 ,,,,,15.5 ,""
2014/1/2 8:00,0.007 ,2282 ,32.6 ,14.8 ,,,,,15.5 ,""
2014/1/2 9:00,0.007 ,2282 ,32.6 ,14.8 ,,,,,15.5 ,""
2014/1/2 10:00,0.007 ,2281 ,32.6 ,14.7 ,,,,,15.5 ,""
2014/1/2 11:00,0.007 ,2281 ,32.6 ,14.7 ,,,,,15.5 ,""
2014/1/2 12:00,0.007 ,2281 ,32.6 ,14.7 ,,,,,15.5 ,""
2014/1/2 13:00,0.007 ,2281 ,32.5 ,14.7 ,,,,,15.5 ,""
2014/1/2 14:00,0.007 ,2282 ,32.5 ,14.7 ,,,,,15.5 ,""
2014/1/2 15:00,0.007 ,2281 ,32.6 ,14.7 ,,,,,15.5 ,""
2014/1/2 16:00,0.007 ,2281 ,32.5 ,14.7 ,,,,,15.5 ,""
2014/1/2 17:00,0.007 ,2281 ,32.6 ,14.7 ,,,,,15.5 ,""
2014/1/2 18:00,0.007 ,2281 ,32.6 ,14.7 ,,,,,15.5 ,""
2014/1/2 19:00,0.007 ,2281 ,32.6 ,14.7 ,,,,,15.5 ,""
2014/1/2 20:00,0.007 ,2281 ,32.6 ,14.7 ,,,,,15.5 ,""
2014/1/2 21:00,0.007 ,2281 ,32.6 ,14.7 ,,,,,15.4 ,""
2014/1/2 22:00,0.007 ,2281 ,32.6 ,14.7 ,,,,,15.4 ,""
2014/1/2 23:00,0.007 ,2281 ,32.7 ,14.7 ,,,,,15.4 ,""
2014/1/3 0:00,0.007 ,2281 ,32.6 ,14.6 ,,,,,15.4 ,""
2014/1/3 1:00,0.007 ,2281 ,32.6 ,14.7 ,,,,,15.4 ,""
2014/1/3 2:00,0.007 ,2281 ,32.6 ,14.6 ,,,,,15.4 ,""
2014/1/3 3:00,0.007 ,2280 ,32.6 ,14.7 ,,,,,15.4 ,""
2014/1/3 4:00,0.007 ,2280 ,32.6 ,14.7 ,,,,,15.4 ,""
2014/1/3 5:00,0.007 ,2280 ,32.6 ,14.7 ,,,,,15.4 ,""
2014/1/3 6:00,0.007 ,2280 ,32.6 ,14.7 ,,,,,15.4 ,""
2014/1/3 7:00,0.007 ,2280 ,32.6 ,14.7 ,,,,,15.4 ,""
2014/1/3 8:00,0.007 ,2280 ,32.6 ,14.7 ,,,,,15.4 ,""
2014/1/3 9:00,0.007 ,2280 ,32.5 ,14.7 ,,,,,15.4 ,""
2014/1/3 10:00,0.007 ,2280 ,32.5 ,14.7 ,,,,,15.4 ,""
2014/1/3 11:00,0.007 ,2280 ,32.5 ,14.7 ,,,,,15.4 ,""
2014/1/3 12:00,0.007 ,2280 ,32.5 ,14.6 ,,,,,15.4 ,""
2014/1/3 13:00,0.007 ,2279 ,32.5 ,14.7 ,,,,,15.4 ,""
2014/1/3 14:00,0.007 ,2279 ,32.5 ,14.6 ,,,,,15.4 ,""
2014/1/3 15:00,0.007 ,2279 ,32.5 ,14.6 ,,,,,15.4 ,""
2014/1/3 16:00,0.007 ,2279 ,32.4 ,14.6 ,,,,,15.4 ,""
2014/1/3 17:00,0.007 ,2279 ,32.5 ,14.6 ,,,,,15.3 ,""
2014/1/3 18:00,0.007 ,2280 ,32.4 ,14.6 ,,,,,15.3 ,""
2014/1/3 19:00,0.007 ,2279 ,32.5 ,14.6 ,,,,,15.3 ,""
2014/1/3 20:00,0.007 ,2279 ,32.4 ,14.6 ,,,,,15.3 ,""
2014/1/3 21:00,0.007 ,2279 ,32.5 ,14.6 ,,,,,15.3 ,""
2014/1/3 22:00,0.007 ,2279 ,32.4 ,14.5 ,,,,,15.4 ,""
2014/1/3 23:00,0.007 ,2279 ,32.4 ,14.6 ,,,,,15.4 ,""
2014/1/4 0:00,0.007 ,2279 ,32.4 ,14.6 ,,,,,15.4 ,""
2014/1/4 1:00,0.007 ,2279 ,32.4 ,14.6 ,,,,,15.4 ,""
2014/1/4 2:00,0.007 ,2278 ,32.4 ,14.6 ,,,,,15.4 ,""
2014/1/4 3:00,0.007 ,2279 ,32.4 ,14.6 ,,,,,15.4 ,""
2014/1/4 4:00,0.007 ,2279 ,32.4 ,14.5 ,,,,,15.4 ,""
2014/1/4 5:00,0.007 ,2279 ,32.4 ,14.6 ,,,,,15.3 ,""
2014/1/4 6:00,0.007 ,2279 ,32.3 ,14.6 ,,,,,15.3 ,""
2014/1/4 7:00,0.007 ,2278 ,32.3 ,14.5 ,,,,,15.3 ,""
2014/1/4 8:00,0.007 ,2278 ,32.3 ,14.5 ,,,,,15.3 ,""
2014/1/4 9:00,0.007 ,2279 ,32.3 ,14.5 ,,,,,15.3 ,""
2014/1/4 10:00,0.007 ,2279 ,32.3 ,14.5 ,,,,,15.3 ,""
2014/1/4 11:00,0.007 ,2278 ,32.3 ,14.5 ,,,,,15.3 ,""
2014/1/4 12:00,0.007 ,2278 ,32.3 ,14.5 ,,,,,15.3 ,""
2014/1/4 13:00,0.007 ,2278 ,32.3 ,14.5 ,,,,,15.3 ,""
2014/1/4 14:00,0.007 ,2278 ,32.3 ,14.4 ,,,,,15.3 ,""
2014/1/4 15:00,0.007 ,2278 ,32.3 ,14.5 ,,,,,15.3 ,""
2014/1/4 16:00,0.007 ,2278 ,32.3 ,14.4 ,,,,,15.3 ,""
2014/1/4 17:00,0.007 ,2278 ,32.3 ,14.4 ,,,,,15.3 ,""
2014/1/4 18:00,0.007 ,2278 ,32.3 ,14.4 ,,,,,15.3 ,""
2014/1/4 19:00,0.007 ,2277 ,32.3 ,14.5 ,,,,,15.3 ,""
2014/1/4 20:00,0.007 ,2278 ,32.3 ,14.4 ,,,,,15.3 ,""
2014/1/4 21:00,0.007 ,2277 ,32.4 ,14.4 ,,,,,15.3 ,""
2014/1/4 22:00,0.007 ,2277 ,32.3 ,14.4 ,,,,,15.3 ,""
2014/1/4 23:00,0.007 ,2277 ,32.3 ,14.4 ,,,,,15.3 ,""
2014/1/5 0:00,0.007 ,2277 ,32.3 ,14.4 ,,,,,15.3 ,""
2014/1/5 1:00,0.007 ,2276 ,32.3 ,14.4 ,,,,,15.3 ,""
2014/1/5 2:00,0.007 ,2277 ,32.3 ,14.4 ,,,,,15.3 ,""
2014/1/5 3:00,0.007 ,2276 ,32.3 ,14.4 ,,,,,15.3 ,""
2014/1/5 4:00,0.007 ,2276 ,32.3 ,14.5 ,,,,,15.3 ,""
2014/1/5 5:00,0.007 ,2276 ,32.3 ,14.4 ,,,,,15.3 ,""
2014/1/5 6:00,0.007 ,2276 ,32.2 ,14.4 ,,,,,15.2 ,""
2014/1/5 7:00,0.007 ,2275 ,32.2 ,14.4 ,,,,,15.3 ,""
2014/1/5 8:00,0.007 ,2275 ,32.2 ,14.4 ,,,,,15.3 ,""
2014/1/5 9:00,0.007 ,2275 ,32.2 ,14.4 ,,,,,15.2 ,""
2014/1/5 10:00,0.007 ,2276 ,32.2 ,14.4 ,,,,,15.2 ,""
2014/1/5 11:00,0.007 ,2275 ,32.2 ,14.4 ,,,,,15.2 ,""
2014/1/5 12:00,0.007 ,2276 ,32.2 ,14.4 ,,,,,15.2 ,""
2014/1/5 13:00,0.007 ,2276 ,32.2 ,14.4 ,,,,,15.2 ,""
2014/1/5 14:00,0.007 ,2276 ,32.2 ,14.4 ,,,,,15.2 ,""
2014/1/5 15:00,0.007 ,2276 ,32.2 ,14.4 ,,,,,15.2 ,""
2014/1/5 16:00,0.007 ,2276 ,32.2 ,14.3 ,,,,,15.2 ,""
2014/1/5 17:00,0.007 ,2276 ,32.2 ,14.3 ,,,,,15.2 ,""
2014/1/5 18:00,0.007 ,2276 ,32.2 ,14.3 ,,,,,15.2 ,""
2014/1/5 19:00,0.007 ,2275 ,32.1 ,14.3 ,,,,,15.1 ,""
2014/1/5 20:00,0.007 ,2275 ,32.1 ,14.3 ,,,,,15.2 ,""
2014/1/5 21:00,0.007 ,2275 ,32.1 ,14.3 ,,,,,15.1 ,""
2014/1/5 22:00,0.007 ,2275 ,32.1 ,14.3 ,,,,,15.1 ,""
2014/1/5 23:00,0.007 ,2275 ,32.1 ,14.3 ,,,,,15.1 ,""
2014/1/6 0:00,0.007 ,2275 ,32.1 ,14.3 ,,,,,15.1 ,""
2014/1/6 1:00,0.007 ,2274 ,32.1 ,14.3 ,,,,,15.1 ,""
2014/1/6 2:00,0.007 ,2274 ,32.1 ,14.3 ,,,,,15.1 ,""
2014/1/6 3:00,0.007 ,2274 ,32.1 ,14.2 ,,,,,15.1 ,""
2014/1/6 4:00,0.007 ,2274 ,32.1 ,14.2 ,,,,,15.1 ,""
2014/1/6 5:00,0.007 ,2274 ,32.0 ,14.2 ,,,,,15.1 ,""
2014/1/6 6:00,0.007 ,2274 ,32.0 ,14.2 ,,,,,15.0 ,""
2014/1/6 7:00,0.007 ,2274 ,32.0 ,14.3 ,,,,,15.1 ,""
2014/1/6 8:00,0.007 ,2274 ,32.0 ,14.2 ,,,,,15.0 ,""
2014/1/6 9:00,0.007 ,2274 ,32.0 ,14.2 ,,,,,15.0 ,""
2014/1/6 10:00,0.007 ,2273 ,32.0 ,14.2 ,,,,,15.0 ,""
2014/1/6 11:00,0.007 ,2272 ,32.0 ,14.2 ,,,,,15.0 ,""
2014/1/6 12:00,0.007 ,2273 ,32.0 ,14.2 ,,,,,15.0 ,""
2014/1/6 13:00,0.007 ,2273 ,31.9 ,14.1 ,,,,,15.0 ,""
2014/1/6 14:00,0.007 ,2273 ,31.9 ,14.1 ,,,,,15.0 ,""
2014/1/6 15:00,0.007 ,2273 ,31.9 ,14.1 ,,,,,15.0 ,""
2014/1/6 16:00,0.007 ,2273 ,31.9 ,14.1 ,,,,,15.0 ,""
2014/1/6 17:00,0.007 ,2273 ,31.9 ,14.1 ,,,,,15.0 ,""
2014/1/6 18:00,0.007 ,2273 ,31.9 ,14.1 ,,,,,15.0 ,""
2014/1/6 19:00,0.007 ,2273 ,31.9 ,14.1 ,,,,,14.9 ,""
2014/1/6 20:00,0.007 ,2273 ,31.9 ,14.1 ,,,,,15.0 ,""
2014/1/6 21:00,0.007 ,2273 ,31.9 ,14.1 ,,,,,15.0 ,""
2014/1/6 22:00,0.007 ,2272 ,31.9 ,14.1 ,,,,,14.9 ,""
2014/1/6 23:00,0.007 ,2272 ,31.9 ,14.0 ,,,,,14.9 ,""
2014/1/7 0:00,0.007 ,2272 ,31.9 ,14.0 ,,,,,14.9 ,""
2014/1/7 1:00,0.007 ,2272 ,31.9 ,14.0 ,,,,,14.9 ,""
2014/1/7 2:00,0.007 ,2272 ,31.8 ,14.0 ,,,,,14.9 ,""
2014/1/7 3:00,0.007 ,2272 ,31.8 ,14.0 ,,,,,14.9 ,""
2014/1/7 4:00,0.007 ,2271 ,31.8 ,14.1 ,,,,,14.9 ,""
2014/1/7 5:00,0.007 ,2271 ,31.8 ,14.0 ,,,,,14.9 ,""
2014/1/7 6:00,0.007 ,2271 ,31.8 ,14.0 ,,,,,14.9 ,""
2014/1/7 7:00,0.007 ,2271 ,31.8 ,14.0 ,,,,,14.8 ,""
2014/1/7 8:00,0.007 ,2270 ,31.8 ,14.0 ,,,,,14.8 ,""
2014/1/7 9:00,0.007 ,2271 ,31.7 ,14.0 ,,,,,14.8 ,""
2014/1/7 10:00,0.007 ,2271 ,31.7 ,14.0 ,,,,,14.8 ,""
2014/1/7 11:00,0.007 ,2271 ,31.7 ,13.9 ,,,,,14.8 ,""
2014/1/7 12:00,0.007 ,2270 ,31.7 ,13.9 ,,,,,14.8 ,""
2014/1/7 13:00,0.007 ,2270 ,31.7 ,13.9 ,,,,,14.8 ,""
2014/1/7 14:00,0.007 ,2270 ,31.7 ,13.9 ,,,,,14.8 ,""
2014/1/7 15:00,0.007 ,2270 ,31.6 ,13.9 ,,,,,14.8 ,""
2014/1/7 16:00,0.007 ,2270 ,31.6 ,13.9 ,,,,,14.8 ,""
2014/1/7 17:00,0.007 ,2270 ,31.6 ,13.8 ,,,,,14.7 ,""
2014/1/7 18:00,0.007 ,2271 ,31.6 ,13.8 ,,,,,14.8 ,""
2014/1/7 19:00,0.007 ,2271 ,31.6 ,13.7 ,,,,,14.7 ,""
2014/1/7 20:00,0.007 ,2270 ,31.6 ,13.8 ,,,,,14.7 ,""
2014/1/7 21:00,0.007 ,2270 ,31.6 ,13.8 ,,,,,14.7 ,""
2014/1/7 22:00,0.007 ,2270 ,31.6 ,13.8 ,,,,,14.7 ,""
2014/1/7 23:00,0.007 ,2270 ,31.6 ,13.8 ,,,,,14.7 ,""
2014/1/8 0:00,0.007 ,2270 ,31.6 ,13.8 ,,,,,14.7 ,""
2014/1/8 1:00,0.007 ,2270 ,31.6 ,13.8 ,,,,,14.7 ,""
2014/1/8 2:00,0.007 ,2270 ,31.6 ,13.8 ,,,,,14.7 ,""
2014/1/8 3:00,0.007 ,2270 ,31.6 ,13.8 ,,,,,14.7 ,""
2014/1/8 4:00,0.007 ,2269 ,31.6 ,13.8 ,,,,,14.7 ,""
2014/1/8 5:00,0.007 ,2269 ,31.6 ,13.8 ,,,,,14.7 ,""
2014/1/8 6:00,0.007 ,2269 ,31.6 ,13.8 ,,,,,14.7 ,""
2014/1/8 7:00,0.007 ,2269 ,31.6 ,13.8 ,,,,,14.7 ,""
2014/1/8 8:00,0.007 ,2269 ,31.6 ,13.8 ,,,,,14.7 ,""
2014/1/8 9:00,0.007 ,2269 ,31.6 ,13.7 ,,,,,14.7 ,""
2014/1/8 10:00,0.007 ,2269 ,31.6 ,13.7 ,,,,,14.7 ,""
2014/1/8 11:00,0.007 ,2269 ,31.6 ,13.7 ,,,,,14.7 ,""
2014/1/8 12:00,0.007 ,2269 ,31.6 ,13.7 ,,,,,14.7 ,""
2014/1/8 13:00,0.007 ,2270 ,31.6 ,13.7 ,,,,,14.7 ,""
2014/1/8 14:00,0.007 ,2270 ,31.6 ,13.7 ,,,,,14.7 ,""
2014/1/8 15:00,0.007 ,2269 ,31.6 ,13.7 ,,,,,14.7 ,""
2014/1/8 16:00,0.007 ,2269 ,31.6 ,13.7 ,,,,,14.7 ,""
2014/1/8 17:00,0.007 ,2270 ,31.6 ,13.7 ,,,,,14.6 ,""
2014/1/8 18:00,0.007 ,2270 ,31.6 ,13.7 ,,,,,14.7 ,""
2014/1/8 19:00,0.007 ,2270 ,31.6 ,13.7 ,,,,,14.6 ,""
2014/1/8 20:00,0.007 ,2270 ,31.7 ,13.7 ,,,,,14.6 ,""
2014/1/8 21:00,0.007 ,2270 ,31.6 ,13.7 ,,,,,14.7 ,""
2014/1/8 22:00,0.007 ,2270 ,31.7 ,13.7 ,,,,,14.7 ,""
2014/1/8 23:00,0.007 ,2270 ,31.7 ,13.7 ,,,,,14.7 ,""
2014/1/9 0:00,0.007 ,2270 ,31.7 ,13.7 ,,,,,14.7 ,""
2014/1/9 1:00,0.007 ,2270 ,31.7 ,13.7 ,,,,,14.7 ,""
2014/1/9 2:00,0.007 ,2270 ,31.7 ,13.7 ,,,,,14.7 ,""
2014/1/9 3:00,0.007 ,2269 ,31.7 ,13.7 ,,,,,14.7 ,""
2014/1/9 4:00,0.007 ,2269 ,31.7 ,13.7 ,,,,,14.7 ,""
2014/1/9 5:00,0.007 ,2269 ,31.7 ,13.7 ,,,,,14.7 ,""
2014/1/9 6:00,0.007 ,2269 ,31.7 ,13.8 ,,,,,14.7 ,""
2014/1/9 7:00,0.007 ,2269 ,31.7 ,13.8 ,,,,,14.7 ,""
2014/1/9 8:00,0.007 ,2269 ,31.7 ,13.7 ,,,,,14.7 ,""
2014/1/9 9:00,0.007 ,2269 ,31.7 ,13.8 ,,,,,14.7 ,""
2014/1/9 10:00,0.007 ,2269 ,31.7 ,13.8 ,,,,,14.7 ,""
2014/1/9 11:00,0.007 ,2269 ,30.3 ,13.4 ,,,,,14.7 ,""
2014/1/9 12:00,0.007 ,2270 ,30.3 ,13.7 ,,,,,14.7 ,""
2014/1/9 13:00,0.007 ,2271 ,30.7 ,13.8 ,,,,,14.7 ,""
2014/1/9 14:00,0.007 ,2272 ,31.0 ,13.7 ,,,,,14.7 ,""
2014/1/9 15:00,0.007 ,2272 ,31.2 ,13.7 ,,,,,14.7 ,""
2014/1/9 16:00,0.007 ,2272 ,31.5 ,13.7 ,,,,,14.8 ,""
2014/1/9 17:00,0.007 ,2273 ,31.7 ,13.8 ,,,,,14.7 ,""
2014/1/9 18:00,0.007 ,2273 ,31.9 ,13.8 ,,,,,14.7 ,""
2014/1/9 19:00,0.007 ,2274 ,32.1 ,13.8 ,,,,,14.7 ,""
2014/1/9 20:00,0.007 ,2274 ,32.3 ,13.8 ,,,,,14.7 ,""
2014/1/9 21:00,0.007 ,2275 ,32.5 ,13.8 ,,,,,14.7 ,""
2014/1/9 22:00,0.007 ,2275 ,32.6 ,13.8 ,,,,,14.7 ,""
2014/1/9 23:00,0.007 ,2276 ,32.7 ,13.8 ,,,,,14.7 ,""
2014/1/10 0:00,0.007 ,2276 ,32.9 ,13.8 ,,,,,14.7 ,""
2014/1/10 1:00,0.007 ,2276 ,33.0 ,13.8 ,,,,,14.7 ,""
2014/1/10 2:00,0.007 ,2276 ,33.1 ,13.8 ,,,,,14.7 ,""
2014/1/10 3:00,0.007 ,2276 ,33.2 ,13.8 ,,,,,14.7 ,""
2014/1/10 4:00,0.007 ,2277 ,33.3 ,13.8 ,,,,,14.7 ,""
2014/1/10 5:00,0.007 ,2277 ,33.4 ,13.8 ,,,,,14.7 ,""
2014/1/10 6:00,0.007 ,2277 ,33.5 ,13.8 ,,,,,14.7 ,""
2014/1/10 7:00,0.007 ,2277 ,33.5 ,13.7 ,,,,,14.7 ,""
2014/1/10 8:00,0.007 ,2277 ,33.6 ,13.8 ,,,,,14.7 ,""
2014/1/10 9:00,0.007 ,2277 ,33.6 ,13.7 ,,,,,14.7 ,""
2014/1/10 10:00,0.007 ,2278 ,33.7 ,13.3 ,,,,,14.6 ,""
2014/1/10 11:00,0.007 ,2278 ,33.7 ,13.6 ,,,,,14.6 ,""
2014/1/10 12:00,0.007 ,2279 ,33.8 ,13.7 ,,,,,14.6 ,""
2014/1/10 13:00,0.007 ,2279 ,33.8 ,13.7 ,,,,,14.6 ,""
2014/1/10 14:00,0.007 ,2279 ,33.9 ,13.7 ,,,,,14.6 ,""
2014/1/10 15:00,0.007 ,2279 ,33.9 ,13.6 ,,,,,14.6 ,""
2014/1/10 16:00,0.007 ,2279 ,34.0 ,13.7 ,,,,,14.6 ,""
2014/1/10 17:00,0.007 ,2279 ,34.0 ,13.6 ,,,,,14.6 ,""
2014/1/10 18:00,0.007 ,2279 ,34.0 ,13.7 ,,,,,14.5 ,""
2014/1/10 19:00,0.007 ,2279 ,34.1 ,13.6 ,,,,,14.5 ,""
2014/1/10 20:00,0.007 ,2279 ,34.1 ,13.5 ,,,,,14.5 ,""
2014/1/10 21:00,0.007 ,2279 ,34.1 ,13.5 ,,,,,14.5 ,""
2014/1/10 22:00,0.007 ,2279 ,34.1 ,13.5 ,,,,,14.5 ,""
2014/1/10 23:00,0.007 ,2279 ,34.2 ,13.5 ,,,,,14.5 ,""
2014/1/11 0:00,0.007 ,2279 ,34.2 ,13.5 ,,,,,14.5 ,""
2014/1/11 1:00,0.007 ,2279 ,34.2 ,13.5 ,,,,,14.5 ,""
2014/1/11 2:00,0.007 ,2279 ,34.2 ,13.5 ,,,,,14.5 ,""
2014/1/11 3:00,0.007 ,2279 ,34.2 ,13.5 ,,,,,14.5 ,""
2014/1/11 4:00,0.007 ,2279 ,34.2 ,13.5 ,,,,,14.5 ,""
2014/1/11 5:00,0.007 ,2279 ,34.2 ,13.5 ,,,,,14.5 ,""
2014/1/11 6:00,0.007 ,2279 ,34.3 ,13.5 ,,,,,14.4 ,""
2014/1/11 7:00,0.007 ,2279 ,34.3 ,13.5 ,,,,,14.4 ,""
2014/1/11 8:00,0.007 ,2279 ,34.3 ,13.5 ,,,,,14.4 ,""
2014/1/11 9:00,0.007 ,2278 ,34.3 ,13.5 ,,,,,14.4 ,""
2014/1/11 10:00,0.007 ,2278 ,34.2 ,13.4 ,,,,,14.4 ,""
2014/1/11 11:00,0.007 ,2278 ,34.2 ,13.4 ,,,,,14.4 ,""
2014/1/11 12:00,0.007 ,2279 ,34.2 ,13.4 ,,,,,14.4 ,""
2014/1/11 13:00,0.007 ,2279 ,34.2 ,13.4 ,,,,,14.4 ,""
2014/1/11 14:00,0.007 ,2279 ,34.2 ,13.4 ,,,,,14.3 ,""
2014/1/11 15:00,0.007 ,2279 ,34.2 ,13.4 ,,,,,14.3 ,""
2014/1/11 16:00,0.007 ,2279 ,34.2 ,13.4 ,,,,,14.3 ,""
2014/1/11 17:00,0.007 ,2279 ,34.2 ,13.4 ,,,,,14.3 ,""
2014/1/11 18:00,0.007 ,2279 ,34.2 ,13.4 ,,,,,14.3 ,""
2014/1/11 19:00,0.007 ,2279 ,34.3 ,13.3 ,,,,,14.3 ,""
2014/1/11 20:00,0.007 ,2279 ,34.2 ,13.3 ,,,,,14.3 ,""
2014/1/11 21:00,0.007 ,2278 ,34.2 ,13.3 ,,,,,14.3 ,""
2014/1/11 22:00,0.007 ,2278 ,34.2 ,13.3 ,,,,,14.3 ,""
2014/1/11 23:00,0.007 ,2278 ,34.2 ,13.3 ,,,,,14.3 ,""
2014/1/12 0:00,0.007 ,2278 ,34.3 ,13.3 ,,,,,14.3 ,""
2014/1/12 1:00,0.007 ,2278 ,34.3 ,13.3 ,,,,,14.2 ,""
2014/1/12 2:00,0.007 ,2278 ,34.3 ,13.3 ,,,,,14.2 ,""
2014/1/12 3:00,0.007 ,2278 ,34.3 ,13.3 ,,,,,14.2 ,""
2014/1/12 4:00,0.007 ,2278 ,34.3 ,13.3 ,,,,,14.2 ,""
2014/1/12 5:00,0.007 ,2277 ,34.2 ,13.3 ,,,,,14.2 ,""
2014/1/12 6:00,0.007 ,2277 ,34.2 ,13.3 ,,,,,14.2 ,""
2014/1/12 7:00,0.007 ,2277 ,34.3 ,13.3 ,,,,,14.2 ,""
2014/1/12 8:00,0.007 ,2277 ,34.3 ,13.3 ,,,,,14.2 ,""
2014/1/12 9:00,0.007 ,2277 ,34.2 ,13.2 ,,,,,14.2 ,""
2014/1/12 10:00,0.007 ,2278 ,34.2 ,13.3 ,,,,,14.2 ,""
2014/1/12 11:00,0.007 ,2278 ,34.2 ,13.2 ,,,,,14.2 ,""
2014/1/12 12:00,0.007 ,2278 ,34.3 ,13.2 ,,,,,14.2 ,""
2014/1/12 13:00,0.007 ,2278 ,34.2 ,13.2 ,,,,,14.2 ,""
2014/1/12 14:00,0.007 ,2278 ,34.2 ,13.2 ,,,,,14.1 ,""
2014/1/12 15:00,0.007 ,2278 ,34.2 ,13.2 ,,,,,14.1 ,""
2014/1/12 16:00,0.007 ,2278 ,34.2 ,13.2 ,,,,,14.1 ,""
2014/1/12 17:00,0.007 ,2279 ,34.2 ,13.2 ,,,,,14.1 ,""
2014/1/12 18:00,0.007 ,2279 ,34.2 ,13.1 ,,,,,14.1 ,""
2014/1/12 19:00,0.007 ,2278 ,34.2 ,13.1 ,,,,,14.1 ,""
2014/1/12 20:00,0.007 ,2278 ,34.3 ,13.1 ,,,,,14.1 ,""
2014/1/12 21:00,0.007 ,2278 ,34.3 ,13.1 ,,,,,14.1 ,""
2014/1/12 22:00,0.007 ,2278 ,34.2 ,13.1 ,,,,,14.1 ,""
2014/1/12 23:00,0.007 ,2278 ,34.3 ,13.1 ,,,,,14.1 ,""
2014/1/13 0:00,0.007 ,2278 ,34.2 ,13.2 ,,,,,14.1 ,""
2014/1/13 1:00,0.007 ,2278 ,34.3 ,13.1 ,,,,,14.1 ,""
2014/1/13 2:00,0.007 ,2277 ,34.3 ,13.2 ,,,,,14.1 ,""
2014/1/13 3:00,0.007 ,2277 ,34.3 ,13.2 ,,,,,14.1 ,""
2014/1/13 4:00,0.007 ,2277 ,34.3 ,13.1 ,,,,,14.1 ,""
2014/1/13 5:00,0.007 ,2277 ,34.3 ,13.1 ,,,,,14.1 ,""
2014/1/13 6:00,0.007 ,2278 ,34.3 ,13.1 ,,,,,14.1 ,""
2014/1/13 7:00,0.007 ,2277 ,34.2 ,13.1 ,,,,,14.1 ,""
2014/1/13 8:00,0.007 ,2277 ,34.2 ,13.2 ,,,,,14.1 ,""
2014/1/13 9:00,0.007 ,2277 ,34.3 ,13.1 ,,,,,14.1 ,""
2014/1/13 10:00,0.007 ,2277 ,34.3 ,13.2 ,,,,,14.1 ,""
2014/1/13 11:00,0.007 ,2277 ,34.3 ,13.1 ,,,,,14.1 ,""
2014/1/13 12:00,0.007 ,2277 ,34.3 ,13.2 ,,,,,14.1 ,""
2014/1/13 13:00,0.007 ,2277 ,34.3 ,13.2 ,,,,,14.1 ,""
2014/1/13 14:00,0.007 ,2277 ,34.3 ,13.1 ,,,,,14.1 ,""
2014/1/13 15:00,0.007 ,2277 ,34.3 ,13.2 ,,,,,14.1 ,""
2014/1/13 16:00,0.007 ,2277 ,34.3 ,13.1 ,,,,,14.0 ,""
2014/1/13 17:00,0.007 ,2277 ,34.3 ,13.1 ,,,,,14.0 ,""
2014/1/13 18:00,0.007 ,2277 ,34.3 ,13.1 ,,,,,14.0 ,""
2014/1/13 19:00,0.007 ,2277 ,34.4 ,13.1 ,,,,,14.0 ,""
2014/1/13 20:00,0.007 ,2277 ,34.4 ,13.1 ,,,,,14.0 ,""
2014/1/13 21:00,0.007 ,2276 ,34.3 ,13.1 ,,,,,14.0 ,""
2014/1/13 22:00,0.007 ,2276 ,34.3 ,13.1 ,,,,,14.0 ,""
2014/1/13 23:00,0.007 ,2276 ,34.3 ,13.1 ,,,,,14.0 ,""
2014/1/14 0:00,0.007 ,2276 ,34.3 ,13.2 ,,,,,14.0 ,""
2014/1/14 1:00,0.007 ,2276 ,34.3 ,13.2 ,,,,,14.0 ,""
2014/1/14 2:00,0.007 ,2276 ,34.3 ,13.2 ,,,,,14.0 ,""
2014/1/14 3:00,0.007 ,2276 ,34.3 ,13.1 ,,,,,14.0 ,""
2014/1/14 4:00,0.007 ,2275 ,34.3 ,13.2 ,,,,,13.9 ,""
2014/1/14 5:00,0.007 ,2275 ,34.3 ,13.1 ,,,,,13.9 ,""
2014/1/14 6:00,0.007 ,2275 ,34.2 ,13.1 ,,,,,13.9 ,""
2014/1/14 7:00,0.007 ,2274 ,34.3 ,13.1 ,,,,,13.9 ,""
2014/1/14 8:00,0.007 ,2274 ,34.2 ,13.1 ,,,,,13.9 ,""
2014/1/14 9:00,0.007 ,2274 ,34.3 ,13.1 ,,,,,13.9 ,""
2014/1/14 10:00,0.007 ,2275 ,34.3 ,13.1 ,,,,,13.9 ,""
2014/1/14 11:00,0.007 ,2275 ,34.2 ,12.9 ,,,,,13.9 ,""
2014/1/14 12:00,0.007 ,2275 ,34.2 ,13.0 ,,,,,13.9 ,""
2014/1/14 13:00,0.007 ,2275 ,34.2 ,13.0 ,,,,,13.9 ,""
2014/1/14 14:00,0.007 ,2274 ,34.2 ,13.1 ,,,,,13.9 ,""
2014/1/14 15:00,0.007 ,2274 ,34.2 ,13.0 ,,,,,13.8 ,""
2014/1/14 16:00,0.007 ,2275 ,34.1 ,13.0 ,,,,,13.9 ,""
2014/1/14 17:00,0.007 ,2275 ,34.2 ,13.0 ,,,,,13.8 ,""
2014/1/14 18:00,0.007 ,2274 ,34.1 ,13.0 ,,,,,13.8 ,""
2014/1/14 19:00,0.007 ,2275 ,34.1 ,13.0 ,,,,,13.8 ,""
2014/1/14 20:00,0.007 ,2275 ,34.1 ,13.0 ,,,,,13.8 ,""
2014/1/14 21:00,0.007 ,2274 ,34.1 ,12.9 ,,,,,13.8 ,""
2014/1/14 22:00,0.007 ,2273 ,34.1 ,12.9 ,,,,,13.8 ,""
2014/1/14 23:00,0.007 ,2274 ,34.1 ,12.9 ,,,,,13.8 ,""
2014/1/15 0:00,0.007 ,2274 ,34.0 ,12.8 ,,,,,13.8 ,""
2014/1/15 1:00,0.007 ,2274 ,34.1 ,12.9 ,,,,,13.8 ,""
2014/1/15 2:00,0.007 ,2273 ,34.0 ,12.8 ,,,,,13.8 ,""
2014/1/15 3:00,0.007 ,2273 ,34.0 ,12.8 ,,,,,13.7 ,""
2014/1/15 4:00,0.007 ,2273 ,34.0 ,12.8 ,,,,,13.7 ,""
2014/1/15 5:00,0.007 ,2273 ,33.9 ,12.8 ,,,,,13.7 ,""
2014/1/15 6:00,0.007 ,2273 ,33.9 ,12.8 ,,,,,13.7 ,""
2014/1/15 7:00,0.007 ,2272 ,33.9 ,12.8 ,,,,,13.7 ,""
2014/1/15 8:00,0.007 ,2272 ,33.9 ,12.8 ,,,,,13.7 ,""
2014/1/15 9:00,0.007 ,2272 ,33.9 ,12.8 ,,,,,13.7 ,""
2014/1/15 10:00,0.007 ,2272 ,33.9 ,12.8 ,,,,,13.7 ,""
2014/1/15 11:00,0.007 ,2272 ,33.8 ,12.6 ,,,,,13.9 ,""
2014/1/15 12:00,0.007 ,2272 ,33.8 ,12.8 ,,,,,13.6 ,""
2014/1/15 13:00,0.007 ,2272 ,33.8 ,12.8 ,,,,,13.6 ,""
2014/1/15 14:00,0.007 ,2272 ,33.8 ,12.8 ,,,,,13.6 ,""
2014/1/15 15:00,0.007 ,2272 ,33.8 ,12.7 ,,,,,13.6 ,""
2014/1/15 16:00,0.007 ,2272 ,33.8 ,12.7 ,,,,,13.6 ,""
2014/1/15 17:00,0.007 ,2272 ,33.8 ,12.7 ,,,,,13.6 ,""
2014/1/15 18:00,0.007 ,2272 ,33.8 ,12.6 ,,,,,13.6 ,""
2014/1/15 19:00,0.007 ,2272 ,33.8 ,12.6 ,,,,,13.6 ,""
2014/1/15 20:00,0.007 ,2272 ,33.8 ,12.6 ,,,,,13.6 ,""
2014/1/15 21:00,0.007 ,2272 ,33.8 ,12.6 ,,,,,13.6 ,""
2014/1/15 22:00,0.007 ,2271 ,33.8 ,12.6 ,,,,,13.6 ,""
2014/1/15 23:00,0.007 ,2271 ,33.8 ,12.6 ,,,,,13.6 ,""
2014/1/16 0:00,0.007 ,2271 ,33.7 ,12.6 ,,,,,13.6 ,""
2014/1/16 1:00,0.007 ,2271 ,33.7 ,12.6 ,,,,,13.6 ,""
2014/1/16 2:00,0.007 ,2271 ,33.8 ,12.6 ,,,,,13.6 ,""
2014/1/16 3:00,0.007 ,2271 ,33.7 ,12.6 ,,,,,13.6 ,""
2014/1/16 4:00,0.007 ,2271 ,33.7 ,12.6 ,,,,,13.6 ,""
2014/1/16 5:00,0.007 ,2271 ,33.7 ,12.6 ,,,,,13.5 ,""
2014/1/16 6:00,0.007 ,2271 ,33.7 ,12.6 ,,,,,13.5 ,""
2014/1/16 7:00,0.007 ,2271 ,33.7 ,12.6 ,,,,,13.5 ,""
2014/1/16 8:00,0.007 ,2270 ,33.6 ,12.6 ,,,,,13.5 ,""
2014/1/16 9:00,0.007 ,2270 ,33.6 ,12.6 ,,,,,13.5 ,""
2014/1/16 10:00,0.007 ,2270 ,33.6 ,12.6 ,,,,,13.5 ,""
2014/1/16 11:00,0.007 ,2270 ,33.6 ,12.5 ,,,,,13.5 ,""
2014/1/16 12:00,0.007 ,2270 ,33.6 ,12.5 ,,,,,13.5 ,""
2014/1/16 13:00,0.007 ,2270 ,33.7 ,12.4 ,,,,,13.5 ,""
2014/1/16 14:00,0.007 ,2270 ,33.6 ,12.4 ,,,,,13.5 ,""
2014/1/16 15:00,0.007 ,2270 ,33.6 ,12.4 ,,,,,13.4 ,""
2014/1/16 16:00,0.007 ,2270 ,33.6 ,12.4 ,,,,,13.4 ,""
2014/1/16 17:00,0.007 ,2270 ,33.6 ,12.4 ,,,,,13.4 ,""
2014/1/16 18:00,0.007 ,2270 ,33.6 ,12.4 ,,,,,13.5 ,""
2014/1/16 19:00,0.007 ,2271 ,33.6 ,12.5 ,,,,,13.5 ,""
2014/1/16 20:00,0.007 ,2271 ,33.6 ,12.4 ,,,,,13.6 ,""
2014/1/16 21:00,0.007 ,2271 ,33.6 ,12.4 ,,,,,13.8 ,""
2014/1/16 22:00,0.007 ,2271 ,33.7 ,12.4 ,,,,,13.8 ,""
2014/1/16 23:00,0.007 ,2270 ,33.6 ,12.4 ,,,,,13.9 ,""
2014/1/17 0:00,0.007 ,2270 ,33.6 ,12.4 ,,,,,13.9 ,""
2014/1/17 1:00,0.007 ,2270 ,33.6 ,12.4 ,,,,,14.0 ,""
2014/1/17 2:00,0.007 ,2270 ,33.6 ,12.4 ,,,,,14.1 ,""
2014/1/17 3:00,0.007 ,2270 ,33.6 ,12.4 ,,,,,14.1 ,""
2014/1/17 4:00,0.007 ,2270 ,33.6 ,12.3 ,,,,,14.2 ,""
2014/1/17 5:00,0.007 ,2270 ,33.6 ,12.4 ,,,,,14.2 ,""
2014/1/17 6:00,0.007 ,2270 ,33.6 ,12.3 ,,,,,14.3 ,""
2014/1/17 7:00,0.007 ,2270 ,33.6 ,12.3 ,,,,,14.3 ,""
2014/1/17 8:00,0.007 ,2270 ,33.6 ,12.3 ,,,,,14.4 ,""
2014/1/17 9:00,0.007 ,2270 ,33.6 ,12.3 ,,,,,14.4 ,""
2014/1/17 10:00,0.007 ,2270 ,33.6 ,12.3 ,,,,,14.5 ,""
2014/1/17 11:00,0.007 ,2270 ,33.6 ,12.3 ,,,,,14.6 ,""
2014/1/17 12:00,0.007 ,2269 ,33.6 ,12.4 ,,,,,14.6 ,""
2014/1/17 13:00,0.007 ,2270 ,33.6 ,12.3 ,,,,,14.7 ,""
2014/1/17 14:00,0.007 ,2270 ,33.6 ,11.9 ,,,,,14.7 ,""
2014/1/17 15:00,0.007 ,2270 ,33.6 ,12.3 ,,,,,14.8 ,""
2014/1/17 16:00,0.007 ,2270 ,33.6 ,12.3 ,,,,,14.8 ,""
2014/1/17 17:00,0.007 ,2270 ,33.6 ,12.3 ,,,,,14.9 ,""
2014/1/17 18:00,0.007 ,2270 ,33.7 ,12.3 ,,,,,14.9 ,""
2014/1/17 19:00,0.007 ,2270 ,33.7 ,12.3 ,,,,,15.0 ,""
2014/1/17 20:00,0.007 ,2269 ,33.6 ,12.4 ,,,,,15.0 ,""
2014/1/17 21:00,0.007 ,2269 ,33.7 ,12.6 ,,,,,15.0 ,""
2014/1/17 22:00,0.007 ,2269 ,33.7 ,12.6 ,,,,,15.1 ,""
2014/1/17 23:00,0.007 ,2269 ,33.7 ,12.7 ,,,,,15.2 ,""
2014/1/18 0:00,0.007 ,2269 ,33.7 ,12.8 ,,,,,15.2 ,""
2014/1/18 1:00,0.007 ,2269 ,33.7 ,12.9 ,,,,,15.2 ,""
2014/1/18 2:00,0.007 ,2269 ,33.7 ,13.0 ,,,,,15.3 ,""
2014/1/18 3:00,0.007 ,2269 ,33.7 ,13.1 ,,,,,15.3 ,""
2014/1/18 4:00,0.007 ,2269 ,33.7 ,13.2 ,,,,,15.4 ,""
2014/1/18 5:00,0.007 ,2269 ,33.7 ,13.3 ,,,,,15.4 ,""
2014/1/18 6:00,0.007 ,2269 ,33.7 ,13.4 ,,,,,15.5 ,""
2014/1/18 7:00,0.007 ,2268 ,33.7 ,13.5 ,,,,,15.5 ,""
2014/1/18 8:00,0.007 ,2268 ,33.7 ,13.5 ,,,,,15.5 ,""
2014/1/18 9:00,0.007 ,2268 ,33.7 ,13.5 ,,,,,15.6 ,""
2014/1/18 10:00,0.007 ,2268 ,33.6 ,13.6 ,,,,,15.6 ,""
2014/1/18 11:00,0.007 ,2268 ,33.7 ,13.7 ,,,,,15.7 ,""
2014/1/18 12:00,0.007 ,2268 ,33.7 ,13.8 ,,,,,15.7 ,""
2014/1/18 13:00,0.007 ,2269 ,33.7 ,13.8 ,,,,,15.7 ,""
2014/1/18 14:00,0.007 ,2269 ,33.7 ,13.9 ,,,,,15.8 ,""
2014/1/18 15:00,0.007 ,2270 ,33.7 ,13.9 ,,,,,15.8 ,""
2014/1/18 16:00,0.007 ,2270 ,33.7 ,13.9 ,,,,,15.9 ,""
2014/1/18 17:00,0.007 ,2270 ,33.7 ,13.9 ,,,,,15.9 ,""
2014/1/18 18:00,0.007 ,2269 ,33.7 ,14.0 ,,,,,15.9 ,""
2014/1/18 19:00,0.007 ,2268 ,33.7 ,14.1 ,,,,,16.0 ,""
2014/1/18 20:00,0.007 ,2268 ,33.7 ,14.1 ,,,,,16.0 ,""
2014/1/18 21:00,0.007 ,2268 ,33.7 ,14.2 ,,,,,16.0 ,""
2014/1/18 22:00,0.007 ,2268 ,33.7 ,14.2 ,,,,,16.0 ,""
2014/1/18 23:00,0.007 ,2268 ,33.8 ,14.2 ,,,,,16.1 ,""
2014/1/19 0:00,0.007 ,2268 ,33.8 ,14.3 ,,,,,16.1 ,""
2014/1/19 1:00,0.007 ,2268 ,33.8 ,14.3 ,,,,,16.2 ,""
2014/1/19 2:00,0.007 ,2268 ,33.8 ,14.4 ,,,,,16.2 ,""
2014/1/19 3:00,0.007 ,2268 ,33.8 ,14.4 ,,,,,16.2 ,""
2014/1/19 4:00,0.007 ,2268 ,33.8 ,14.5 ,,,,,16.3 ,""
2014/1/19 5:00,0.007 ,2268 ,33.8 ,14.5 ,,,,,16.3 ,""
2014/1/19 6:00,0.007 ,2268 ,33.8 ,14.5 ,,,,,16.4 ,""